Weather History for Okeechobee, FL

Change the Weather History Date:

Sunday, August 19, 2012

  Actual Average Record
Temperature  
Mean Temperature 71 °F -  
Max Temperature 80 °F 90 °F 95 °F (1984)
Min Temperature 62 °F 73 °F 62 °F (2012)
Cooling Degree Days 6    
Growing Degree Days 21 (Base 50)    
Moisture  
Dew Point 64 °F    
Average Humidity 78    
Maximum Humidity 100    
Minimum Humidity 51    
Precipitation  
Precipitation 0.00 in - - ()
Sea Level Pressure  
Sea Level Pressure 29.98 in    
Wind  
Wind Speed 3 mph (SSW)    
Max Wind Speed 13 mph    
Max Gust Speed 18 mph    
Visibility 10 miles    
Events Thunderstorm    
Averages and records for this station are not official NWS values.
T = Trace of Precipitation, MM = Missing Value Source: NWS Daily Summary

Daily Weather History Graph

Daily Weather History Graph

Search for Another Location

Airport:

Trip Planner

Search our weather history database for the weather conditions in past years. The results will help you decide how hot, cold, wet, or windy it might be!

Date:

Astronomy

Aug. 19, 2012 Rise Set
Actual Time 6:56 AM EDT 7:56 PM EDT
Civil Twilight 6:32 AM EDT 8:20 PM EDT
Nautical Twilight 6:03 AM EDT 8:49 PM EDT
Astronomical Twilight 5:34 AM EDT 9:18 PM EDT
Moon 8:51 AM EDT 9:06 PM EDT
Length of Visible Light 13h 48m
Length of Day
12h 59m
Waxing Crescent, 5% of the Moon is Illuminated
Aug 19
Waxing Crescent
Aug 24
First Quarter
Aug 31
Full
Sep 8
Last Quarter
Sep 15
New

Hourly Weather History & Observations

Time (EDT) Temp. Heat Index Dew Point Humidity Pressure Visibility Wind Dir Wind Speed Gust Speed Precip Events Conditions
12:35 AM 68.0 °F - 66.2 °F 94% 30.01 in 10.0 mi SSE 3.5 mph - N/A   Clear
12:55 AM 68.0 °F - 66.2 °F 94% 30.01 in 10.0 mi Calm Calm - N/A   Clear
1:15 AM 68.0 °F - 66.2 °F 94% 30.00 in 10.0 mi Calm Calm - N/A   Clear
1:35 AM 68.0 °F - 64.4 °F 88% 29.99 in 10.0 mi Calm Calm - N/A   Clear
1:55 AM 68.0 °F - 66.2 °F 94% 30.00 in 10.0 mi Calm Calm - N/A   Clear
2:15 AM 68.0 °F - 64.4 °F 88% 30.00 in 10.0 mi Calm Calm - N/A   Clear
2:35 AM 68.0 °F - 64.4 °F 88% 29.99 in 10.0 mi Calm Calm - N/A   Clear
2:55 AM 66.2 °F - 64.4 °F 94% 29.99 in 10.0 mi Calm Calm - N/A   Clear
3:15 AM 66.2 °F - 64.4 °F 94% 29.99 in 10.0 mi Calm Calm - N/A   Clear
3:35 AM 66.2 °F - 64.4 °F 94% 29.98 in 10.0 mi Calm Calm - N/A   Clear
3:55 AM 64.4 °F - 64.4 °F 100% 29.97 in 7.0 mi Calm Calm - N/A   Clear
4:15 AM 64.4 °F - 64.4 °F 100% 29.98 in 7.0 mi Calm Calm - N/A   Clear
4:35 AM 64.4 °F - 64.4 °F 100% 29.98 in 7.0 mi Calm Calm - N/A   Clear
4:55 AM 64.4 °F - 64.4 °F 100% 29.98 in 7.0 mi Calm Calm - N/A   Clear
5:15 AM 64.4 °F - 62.6 °F 94% 29.98 in 7.0 mi Calm Calm - N/A   Clear
5:35 AM 64.4 °F - 64.4 °F 100% 29.98 in 7.0 mi Calm Calm - N/A   Clear
5:55 AM 64.4 °F - 62.6 °F 94% 29.98 in 7.0 mi Calm Calm - N/A   Clear
6:15 AM 62.6 °F - 62.6 °F 100% 29.98 in 7.0 mi Calm Calm - N/A   Clear
6:35 AM 62.6 °F - 62.6 °F 100% 29.99 in 7.0 mi Calm Calm - N/A   Clear
6:55 AM 62.6 °F - 62.6 °F 100% 29.99 in 10.0 mi Calm Calm - N/A   Clear
7:15 AM 62.6 °F - 62.6 °F 100% 29.99 in 10.0 mi Calm Calm - N/A   Clear
7:55 AM 62.6 °F - 62.6 °F 100% 30.00 in 10.0 mi Calm Calm - N/A   Clear
8:15 AM 64.4 °F - 62.6 °F 94% 30.00 in 7.0 mi Calm Calm - N/A   Clear
8:35 AM 64.4 °F - 62.6 °F 94% 30.01 in 10.0 mi Calm Calm - N/A   Clear
9:15 AM 64.4 °F - 60.8 °F 88% 30.01 in 10.0 mi South 6.9 mph - N/A   Clear
9:35 AM 66.2 °F - 60.8 °F 83% 30.01 in 10.0 mi South 6.9 mph - N/A   Clear
9:55 AM 68.0 °F - 60.8 °F 78% 30.01 in 10.0 mi SSW 8.1 mph - N/A   Clear
10:15 AM 68.0 °F - 60.8 °F 78% 30.02 in 10.0 mi South 9.2 mph - N/A   Clear
10:35 AM 69.8 °F - 60.8 °F 73% 30.01 in 10.0 mi South 9.2 mph - N/A   Clear
10:55 AM 69.8 °F - 60.8 °F 73% 30.01 in 10.0 mi SSW 12.7 mph - N/A   Clear
11:15 AM 71.6 °F - 60.8 °F 69% 30.01 in 10.0 mi SSW 9.2 mph - N/A   Scattered Clouds
11:35 AM 71.6 °F - 60.8 °F 69% 30.00 in 10.0 mi SSW 10.4 mph - N/A   Scattered Clouds
11:55 AM 71.6 °F - 60.8 °F 69% 30.00 in 10.0 mi South 11.5 mph - N/A   Mostly Cloudy
12:15 PM 73.4 °F - 62.6 °F 69% 30.00 in 10.0 mi SSW 10.4 mph 16.1 mph N/A   Mostly Cloudy
12:35 PM 73.4 °F - 62.6 °F 69% 29.99 in 10.0 mi South 8.1 mph - N/A   Mostly Cloudy
12:55 PM 73.4 °F - 62.6 °F 69% 29.99 in 10.0 mi SSE 10.4 mph 18.4 mph N/A   Mostly Cloudy
1:15 PM 73.4 °F - 62.6 °F 69% 29.98 in 10.0 mi SSE 9.2 mph - N/A   Mostly Cloudy
1:35 PM 75.2 °F - 62.6 °F 65% 29.97 in 10.0 mi South 6.9 mph 10.4 mph N/A   Mostly Cloudy
1:55 PM 77.0 °F - 62.6 °F 61% 29.97 in 10.0 mi SSE 9.2 mph - N/A   Mostly Cloudy
2:15 PM 77.0 °F - 62.6 °F 61% 29.96 in 10.0 mi SSE 8.1 mph - N/A   Scattered Clouds
2:35 PM 77.0 °F - 62.6 °F 61% 29.95 in 10.0 mi SSE 9.2 mph - N/A   Scattered Clouds
2:55 PM 77.0 °F - 62.6 °F 61% 29.94 in 10.0 mi SSE 10.4 mph - N/A   Scattered Clouds
3:15 PM 78.8 °F - 62.6 °F 57% 29.94 in 10.0 mi SSE 9.2 mph - N/A   Scattered Clouds
3:35 PM 78.8 °F - 62.6 °F 57% 29.93 in 10.0 mi SSE 9.2 mph - N/A   Clear
3:55 PM 78.8 °F - 62.6 °F 57% 29.93 in 10.0 mi SSE 8.1 mph - N/A   Scattered Clouds
4:15 PM 78.8 °F - 62.6 °F 57% 29.93 in 10.0 mi SSE 9.2 mph - N/A   Scattered Clouds
4:35 PM 78.8 °F - 62.6 °F 57% 29.93 in 10.0 mi SSE 8.1 mph - N/A   Mostly Cloudy
4:55 PM 80.6 °F 82.3 °F 64.4 °F 58% 29.92 in 10.0 mi SE 8.1 mph - N/A   Scattered Clouds
5:15 PM 80.6 °F 82.3 °F 64.4 °F 58% 29.93 in 10.0 mi SSE 6.9 mph - N/A Thunderstorm Scattered Clouds
5:35 PM 78.8 °F - 64.4 °F 61% 29.92 in 10.0 mi SSE 5.8 mph - N/A   Scattered Clouds
6:15 PM 78.8 °F - 66.2 °F 65% 29.93 in 10.0 mi ESE 3.5 mph - N/A   Mostly Cloudy
6:35 PM 80.6 °F 82.7 °F 66.2 °F 61% 29.94 in 10.0 mi SW 4.6 mph - N/A   Mostly Cloudy
6:55 PM 80.6 °F 81.5 °F 60.8 °F 51% 29.94 in 10.0 mi West 8.1 mph - N/A   Mostly Cloudy
7:15 PM 80.6 °F 81.8 °F 62.6 °F 54% 29.94 in 10.0 mi WSW 8.1 mph - N/A   Mostly Cloudy
7:35 PM 80.6 °F 82.3 °F 64.4 °F 58% 29.95 in 10.0 mi West 5.8 mph - N/A   Scattered Clouds
7:55 PM 78.8 °F - 66.2 °F 65% 29.96 in 10.0 mi West 6.9 mph - N/A   Clear
8:15 PM 78.8 °F - 68.0 °F 69% 29.96 in 10.0 mi West 5.8 mph - N/A   Clear
8:35 PM 78.8 °F - 68.0 °F 69% 29.97 in 10.0 mi West 4.6 mph - N/A   Clear
8:55 PM 77.0 °F - 68.0 °F 74% 29.98 in 10.0 mi West 5.8 mph - N/A   Clear
9:15 PM 77.0 °F - 68.0 °F 74% 29.99 in 10.0 mi West 3.5 mph - N/A   Clear
9:35 PM 75.2 °F - 66.2 °F 73% 29.99 in 10.0 mi West 4.6 mph - N/A Thunderstorm Clear
9:55 PM 73.4 °F - 66.2 °F 78% 30.00 in 10.0 mi West 3.5 mph - N/A   Clear
10:15 PM 73.4 °F - 66.2 °F 78% 30.01 in 10.0 mi West 4.6 mph - N/A   Clear
10:35 PM 73.4 °F - 68.0 °F 83% 30.01 in 10.0 mi WSW 3.5 mph - N/A   Clear
10:55 PM 73.4 °F - 68.0 °F 83% 30.01 in 10.0 mi Calm Calm - N/A   Clear
11:15 PM 73.4 °F - 68.0 °F 83% 30.02 in 10.0 mi Calm Calm - N/A   Clear
11:35 PM 73.4 °F - 68.0 °F 83% 30.02 in 10.0 mi Calm Calm - N/A   Clear
11:55 PM 73.4 °F - 68.0 °F 83% 30.02 in 10.0 mi NW 3.5 mph - N/A   Clear